COSMOS 2361 1 25590U 98076A 10071.10865921 .00000013 00000-0 -22047-5 0 2899 2 25590 82.9292 277.1336 0033013 60.7910 299.6542 13.72715550561787 COSMOS 2378 1 26818U 01023A 10071.24512281 .00000012 00000-0 -38087-5 0 2768 2 26818 82.9269 303.4257 0034077 27.0918 333.2002 13.73741806439138 COSMOS 2389 1 27436U 02026A 10072.04689212 .00000036 00000-0 22185-4 0 143 2 27436 82.9449 243.7557 0044968 272.1555 87.4460 13.74739863390913 COSMOS 2398 1 27818U 03023A 10071.09746432 .00000049 00000-0 37809-4 0 8632 2 27818 82.9493 191.5592 0029853 249.8906 109.9033 13.71962760338988 COSMOS 2407 1 28380U 04028A 10071.79121554 .00000025 00000-0 10228-4 0 6832 2 28380 82.9623 152.0859 0037988 302.1743 57.5736 13.75850781283122 COSMOS 2414 1 28521U 05002A 10071.89276654 .00000038 00000-0 19039-4 0 6108 2 28521 82.9469 214.0627 0039943 341.9959 17.9807 13.87355789260352 COSMOS 2429 1 32052U 07038A 10072.12642126 .00000029 00000-0 15339-4 0 7910 2 32052 82.9754 261.8867 0037011 257.4662 102.2352 13.74700567125510 COSMOS 2454 1 35635U 09039A 10072.06608596 .00000138 00000-0 10000-3 0 2251 2 35635 82.9539 208.6360 0019260 333.7441 26.2713 13.89389523 32612